Temp
48 48 48 49 47 48 49 49 49 49 50 49 50 50 50 50 49 48 53 59 54 49 54 57 56 55 54 56 49 56 50 54 51 45 46 49 46 53 53 58 51 46 45 43 47 43 41 67 66 59 67 75 76 76
47 47 47 47 47 49 48 49 49 49 49 49 50 50 50 50 49 50 49 56 59 51 50 60 59 64 58 64 59 56 53 56 58 52 52 54 47 47 53 46 62 47 57 51 55 55 67 67 69 71 76 74 75 75
47 47 47 48 48 48 49 49 49 49 49 50 50 50 50 49 49 51 51 54 53 45 49 53 53 60 62 63 63 55 59 63 61 65 59 54 47 55 45 50 56 60 65 56 58 64 67 69 71 72 74 73 76 75
47 46 47 47 48 48 48 49 49 49 49 50 50 49 48 49 51 54 51 55 53 49 41 48 60 56 60 62 60 62 64 66 66 64 55 50 48 62 52 57 56 61 63 59 58 64 68 69 69 69 74 73 72 72
46 46 46 46 47 47 48 48 48 49 48 48 48 49 49 49 51 51 51 55 59 53 45 48 55 56 57 58 57 61 61 62 60 53 47 47 58 58 58 57 54 64 60 55 53 65 63 67 72 72 72 72 69 70
47 46 47 46 46 46 46 47 47 47 47 47 48 48 48 49 49 48 40 52 60 62 52 42 56 51 51 51 53 57 59 59 58 55 53 59 64 59 47 49 62 66 68 69 63 69 69 67 63 66 69 72 71 69
46 46 46 46 47 47 46 46 47 47 47 47 48 48 49 49 49 46 46 54 56 63 53 44 46 54 54 50 48 54 58 57 57 54 52 57 59 58 50 47 61 66 68 69 71 69 61 65 64 63 64 67 62 67
46 46 46 46 46 47 46 46 47 47 47 47 48 47 48 49 50 50 54 52 58 57 55 42 41 46 55 46 42 54 51 53 54 54 56 54 57 53 46 58 61 64 66 66 66 67 64 66 63 62 62 61 59 61
46 46 46 46 46 46 47 46 46 47 47 47 49 50 52 50 48 50 49 51 59 55 44 35 38 36 53 50 46 48 50 43 52 47 50 54 50 45 54 58 61 63 62 63 67 68 66 59 61 60 58 57 58 56
45 45 45 45 46 46 47 47 47 48 49 50 52 50 43 47 47 49 47 46 50 51 47 38 47 40 42 42 41 40 47 43 37 44 54 47 48 59 59 53 61 62 59 64 56 55 56 56 57 56 55 56 56 54
46 46 46 46 46 46 47 47 48 48 48 51 47 39 48 47 48 44 36 39 38 34 44 46 47 42 43 35 39 45 40 39 35 41 40 38 40 43 48 51 53 56 57 58 58 56 56 56 56 53 52 52 51 50
47 46 46 46 46 46 47 47 48 51 49 45 47 50 49 46 37 33 33 39 38 39 45 43 42 40 36 35 40 38 38 37 34 40 35 32 34 37 40 42 43 47 50 51 53 51 51 52 51 47 43 36 34 33
46 46 46 46 47 47 46 46 46 47 49 51 49 41 37 37 31 30 28 34 35 42 42 41 37 39 38 43 39 39 35 35 39 34 32 32 35 36 36 37 35 36 37 37 36 38 36 33 33 33 31 31 30 28
46 46 46 46 46 46 46 46 47 48 53 39 35 30 33 30 32 31 29 35 35 37 39 43 38 39 38 38 36 34 34 36 33 32 29 33 33 34 33 33 32 30 30 30 29 30 29 30 30 31 31 31 29 28
46 46 46 46 46 45 45 45 47 52 45 33 35 26 29 32 32 32 31 33 33 36 41 39 38 39 35 34 34 33 32 31 30 29 32 32 33 32 31 30 30 29 29 29 30 29 29 30 29 29 30 30 29 28
47 48 46 45 45 45 46 47 48 49 42 35 30 27 30 31 29 29 28 28 32 31 40 39 33 35 33 34 31 29 30 25 28 31 32 33 31 32 31 31 31 31 31 31 31 31 30 29 29 29 29 29 28 27
48 47 45 45 45 45 45 44 42 34 32 30 27 28 27 28 26 26 30 29 32 32 32 35 30 27 37 31 26 28 26 27 30 32 33 33 31 31 31 31 30 30 30 30 30 30 29 30 30 30 27 27 27 26
44 45 45 46 48 45 44 42 36 33 26 27 25 26 26 26 25 27 28 30 32 33 31 26 32 25 23 22 22 26 29 30 30 29 29 29 30 30 31 30 30 30 30 29 29 29 28 27 26 26 27 27 27 27
45 45 45 46 46 42 36 36 40 28 27 28 27 27 28 26 27 28 29 30 30 31 29 25 19 17 19 22 21 24 28 29 27 27 27 27 28 28 27 28 28 27 27 27 27 27 27 28 28 29 29 29 27 28
44 44 44 45 47 42 35 35 43 33 28 29 30 27 27 26 27 27 27 28 27 24 20 18 17 18 19 22 25 25 28 30 28 24 23 24 25 25 25 26 25 25 25 25 26 27 27 26 27 27 27 26 25 23
43 40 43 47 47 44 37 36 36 37 35 33 36 35 30 32 27 27 26 29 24 21 18 20 20 21 23 24 25 25 24 25 24 24 22 21 24 24 23 24 24 24 23 22 22 22 23 22 24 24 23 22 22 22
44 42 48 47 42 41 39 40 38 39 37 35 35 36 29 27 25 25 29 22 19 21 22 22 22 23 22 21 22 23 22 23 22 22 21 22 20 20 21 21 20 19 20 20 20 18 19 21 22 22 22 22 22 19
43 46 42 40 34 34 31 44 33 36 30 31 34 29 28 27 28 33 22 23 21 25 26 24 22 23 22 22 22 22 22 22 20 20 19 19 19 19 18 19 21 19 18 19 21 20 18 18 18 19 20 19 20 18
43 33 30 30 33 27 33 30 37 34 33 30 27 23 24 27 31 25 18 19 21 25 24 24 26 24 23 22 20 20 21 22 20 20 20 19 17 17 20 19 20 20 21 20 19 18 18 17 18 18 16 16 15 15
30 25 30 26 32 29 27 26 27 29 24 26 23 23 23 30 22 19 17 19 21 20 22 23 23 23 20 19 19 19 22 23 20 18 22 24 22 20 18 18 17 17 20 18 17 16 15 16 15 15 14 12 11 12
22 24 26 27 27 26 26 23 23 23 24 22 21 25 27 23 17 15 18 19 19 19 19 21 21 19 18 20 18 18 19 24 22 17 17 19 20 19 18 16 15 13 17 17 16 15 14 14 13 12 13 13 10 11
22 24 27 32 31 30 26 27 28 24 20 19 22 20 21 14 13 16 20 21 20 20 21 23 23 22 20 19 20 20 20 19 17 17 18 17 17 17 15 12 9 11 16 15 15 14 12 12 11 11 11 12 11 11
26 26 19 22 23 26 20 21 20 18 19 22 23 13 12 13 14 19 19 21 20 21 20 20 21 21 20 19 20 21 19 18 16 18 18 17 16 15 14 13 11 11 13 11 13 12 12 11 10 10 9 9 8 10
24 27 24 14 19 19 17 18 18 18 19 22 18 15 13 16 20 19 20 21 22 21 18 17 17 19 18 18 17 17 17 18 16 11 11 12 13 11 13 13 13 12 13 14 10 11 9 9 8 8 8 9 11 12
22 28 20 16 14 15 15 19 16 17 20 20 19 16 15 15 17 22 21 21 20 17 18 18 18 19 17 17 14 12 13 13 13 14 13 10 9 11 12 11 11 11 12 12 11 12 8 11 10 11 9 9 8 7
27 27 21 20 16 17 18 19 19 19 19 17 19 17 14 15 16 18 18 18 18 17 17 15 15 17 15 14 15 13 10 11 8 9 11 12 12 11 10 10 10 11 11 10 9 9 7 9 9 8 6 5 4 4
23 22 19 15 15 18 20 21 21 19 19 18 15 16 15 16 13 15 17 18 17 17 11 16 15 14 13 12 12 10 6 11 11 10 8 11 11 10 11 11 10 11 9 8 9 8 6 5 7 6 5 5 3 2
23 22 21 18 15 15 18 20 19 16 18 17 16 17 17 17 12 15 16 18 17 18 16 17 16 13 11 11 12 10 8 11 6 5 5 4 3 4 7 11 10 9 7 7 8 7 5 5 5 4 4 2 2 1
MSLP
988.30 986.90 985.74 984.76 983.50 981.19 978.35 978.81 982.22 984.73 986.68 988.49 990.25 991.93 993.63 995.40 997.15 998.99 998.91 999.69 1000.20 1000.03 999.99 1000.11 1000.41 1000.09 1000.60 1000.81 1000.89 1001.41 1002.09 1002.61 1003.20 1003.23 1002.89 1001.79 1001.38 1000.81 1000.29 999.71 1000.35 1000.97 1001.21 1001.24 1001.00 1000.20 999.29 998.64 998.46 998.02 997.29 997.05 997.10 997.27
988.56 987.17 985.85 984.86 984.06 982.50 981.52 981.99 983.48 985.29 987.01 988.71 990.37 992.09 993.80 995.61 997.66 999.34 999.37 1000.10 1000.32 1000.41 1001.23 1001.07 1000.90 1000.46 1001.05 1000.68 1001.00 1001.17 1001.34 1001.36 1001.28 1001.86 1001.73 1001.33 1001.20 1001.09 1000.29 999.69 999.60 1000.05 999.54 999.67 999.56 998.67 998.49 998.39 997.65 997.54 997.18 997.15 997.14 997.49
989.03 987.53 985.65 985.13 984.94 984.49 984.17 984.55 985.49 986.71 988.05 989.42 991.06 992.74 994.47 996.20 998.08 999.13 999.16 1000.06 1000.53 1001.45 1002.01 1001.47 1001.23 1001.71 1002.05 1001.89 1001.85 1001.12 1001.19 1000.43 1000.78 1000.97 1001.09 1001.47 1001.34 1000.88 1000.31 999.83 999.27 999.07 999.00 999.11 998.85 998.16 998.01 998.03 998.01 997.94 997.81 997.87 997.71 998.04
989.90 988.67 987.29 986.20 986.03 986.03 986.10 986.53 987.21 988.12 989.24 990.51 991.96 993.64 995.35 997.16 998.35 998.66 999.18 1000.46 1000.88 1001.62 1001.40 1001.38 1001.77 1001.83 1002.20 1002.48 1002.55 1001.70 1000.74 1000.44 1000.43 1001.11 1001.09 1001.35 1000.93 1000.01 1000.05 999.74 999.04 998.91 998.59 998.60 998.28 998.12 997.95 997.82 997.97 998.01 997.71 998.22 998.33 998.58
991.12 990.12 989.08 988.18 987.75 987.63 987.89 988.18 988.79 989.65 990.76 991.56 992.77 994.41 996.37 997.80 998.48 999.36 1000.54 1000.79 1000.54 1000.59 1000.53 1001.02 1001.72 1002.11 1002.20 1002.63 1002.56 1001.48 1001.21 1000.56 1000.86 1001.32 1001.24 1001.07 1000.52 1000.43 1000.14 1000.04 998.76 998.46 997.97 998.02 997.83 997.85 997.80 997.71 997.85 997.75 997.55 997.86 998.73 998.87
992.56 991.74 991.06 990.47 990.01 989.74 989.80 990.05 990.62 991.45 992.36 993.55 994.93 996.42 997.85 998.71 999.42 1000.62 1001.75 1002.13 1001.64 1000.81 1000.69 1001.08 1001.65 1002.55 1002.77 1003.07 1003.25 1002.16 1001.63 1001.30 1001.37 1001.05 1000.94 1000.35 1000.05 1000.20 999.83 998.87 998.28 998.03 997.80 997.58 997.75 997.93 998.06 998.43 998.72 998.70 998.33 998.08 998.65 999.23
994.00 993.45 992.97 992.43 992.13 992.12 992.22 992.37 992.93 993.77 994.62 995.80 996.62 997.66 998.96 999.98 1000.45 1000.77 1001.05 1001.01 1001.51 1001.07 1000.88 1001.41 1001.24 1001.55 1002.57 1003.28 1003.43 1002.37 1002.04 1001.69 1001.39 1001.24 1000.90 1000.19 1000.01 1000.21 999.84 998.91 998.15 997.72 997.58 997.61 997.56 997.88 998.53 998.73 998.72 999.32 999.44 999.29 999.67 999.80
995.37 995.02 994.71 994.44 994.13 994.06 994.28 994.60 994.85 995.49 996.47 997.40 998.20 999.19 999.97 1000.42 1000.68 1000.90 1001.42 1001.54 1001.16 1001.05 1001.48 1001.57 1001.67 1001.65 1001.80 1002.22 1003.04 1002.08 1001.94 1002.16 1001.60 1001.07 1000.65 1000.32 1000.12 1000.56 999.62 998.81 998.25 998.33 998.17 997.95 997.90 998.41 998.86 999.14 999.65 999.93 1000.24 1000.37 1000.63 1000.78
996.53 996.46 996.35 996.23 996.16 996.13 996.26 996.59 996.93 997.37 998.10 998.88 999.53 999.85 1000.31 1000.85 1001.00 1001.88 1002.40 1002.31 1002.07 1001.77 1001.49 1002.29 1001.70 1001.35 1001.30 1001.33 1002.04 1002.09 1001.56 1001.99 1001.68 1001.16 1000.97 1000.68 1000.30 999.86 999.36 999.01 998.60 998.38 998.21 997.87 997.80 998.05 998.77 999.82 1000.03 1000.37 1000.96 1001.38 1001.47 1002.07
997.49 997.55 997.62 997.72 997.73 997.79 997.91 998.20 998.61 999.03 999.42 999.76 1000.11 1000.13 1001.02 1002.12 1002.56 1002.82 1003.53 1002.89 1002.25 1001.95 1002.23 1002.14 1001.84 1002.00 1002.49 1001.90 1001.89 1001.85 1000.63 1001.23 1001.73 1001.61 1001.35 1000.99 1000.33 1000.06 1000.07 1000.72 999.74 999.28 999.66 998.75 999.39 999.75 1000.15 1000.51 1000.85 1001.46 1002.07 1002.54 1002.95 1003.72
998.45 998.59 998.69 998.86 999.11 999.33 999.47 999.69 999.96 1000.18 1000.22 1000.05 1000.00 1001.38 1002.49 1003.08 1002.79 1002.76 1003.09 1002.78 1002.89 1002.54 1001.96 1001.29 1001.52 1002.36 1003.49 1003.73 1002.54 1001.99 1001.50 1001.74 1001.72 1001.59 1001.87 1002.10 1002.08 1002.97 1003.01 1002.30 1001.81 1001.48 1001.36 1001.23 1001.32 1001.60 1001.74 1001.79 1001.93 1002.89 1003.73 1004.38 1005.06 1005.80
998.85 999.62 999.77 999.93 1000.23 1000.61 1000.91 1001.10 1000.94 1000.50 1000.73 1001.25 1001.06 1002.11 1002.81 1002.89 1003.09 1003.33 1003.14 1002.80 1002.23 1001.20 1000.89 1001.07 1002.23 1003.42 1004.24 1004.74 1003.41 1002.63 1001.90 1002.39 1001.87 1002.26 1002.85 1003.55 1005.01 1005.42 1005.02 1004.71 1004.40 1003.83 1003.48 1003.31 1003.33 1003.37 1003.57 1003.66 1004.19 1005.24 1006.43 1007.53 1008.63 1009.66
999.45 1000.27 1000.66 1000.94 1001.22 1001.49 1001.58 1001.45 1001.23 1001.02 1001.04 1001.01 1001.01 1001.96 1002.93 1003.38 1003.43 1003.15 1003.00 1002.46 1001.90 1001.41 1001.51 1001.56 1002.21 1003.14 1004.22 1003.10 1002.02 1001.53 1001.59 1002.28 1002.52 1002.98 1004.04 1005.98 1006.81 1006.88 1006.83 1006.58 1006.60 1006.49 1006.33 1006.32 1006.37 1006.45 1006.78 1007.26 1007.79 1008.13 1009.18 1010.27 1011.11 1011.98
1000.86 1001.22 1001.56 1001.80 1002.00 1002.12 1002.03 1001.89 1001.70 1001.51 1001.08 1001.81 1002.28 1002.91 1003.21 1003.66 1004.14 1004.33 1004.30 1003.50 1003.18 1002.71 1002.23 1002.04 1002.31 1002.45 1002.84 1002.53 1002.33 1001.97 1002.81 1002.96 1003.41 1004.10 1005.82 1007.40 1008.02 1008.22 1008.37 1008.32 1008.37 1008.59 1008.53 1008.51 1008.67 1008.78 1008.85 1009.40 1010.24 1010.98 1011.68 1012.26 1012.82 1013.74
1001.67 1002.03 1002.35 1002.68 1002.73 1002.63 1002.55 1002.30 1001.88 1001.78 1002.42 1003.38 1003.85 1004.87 1005.33 1005.93 1005.85 1005.87 1005.70 1004.79 1004.34 1003.67 1002.52 1002.31 1002.98 1002.95 1003.01 1002.95 1003.12 1003.50 1004.01 1004.63 1005.78 1006.88 1008.12 1009.04 1009.33 1009.45 1009.61 1009.78 1009.99 1010.09 1010.17 1010.25 1010.54 1010.72 1011.01 1011.44 1012.05 1012.78 1013.75 1014.29 1014.84 1015.46
1001.88 1002.19 1003.13 1003.15 1003.16 1003.09 1002.81 1002.61 1002.62 1003.02 1004.37 1005.50 1006.83 1006.92 1007.15 1006.80 1007.04 1007.03 1006.86 1006.11 1005.61 1005.02 1003.74 1003.34 1003.52 1003.67 1004.21 1004.52 1005.00 1005.80 1006.07 1007.78 1008.85 1009.49 1010.12 1010.30 1010.51 1010.66 1010.87 1011.09 1011.19 1011.37 1011.62 1011.85 1012.10 1012.35 1012.83 1013.33 1013.85 1014.43 1015.36 1016.06 1016.77 1017.11
1002.23 1002.69 1003.54 1003.35 1003.27 1003.37 1003.37 1003.59 1004.33 1005.93 1007.00 1007.77 1008.93 1009.73 1009.43 1009.19 1009.25 1009.01 1008.30 1007.73 1006.69 1005.58 1004.89 1004.95 1005.51 1006.17 1006.04 1006.69 1008.23 1009.50 1010.25 1011.33 1011.48 1011.50 1011.77 1011.81 1011.91 1012.11 1012.28 1012.46 1012.67 1012.92 1013.14 1013.44 1013.71 1014.15 1014.61 1015.20 1015.50 1015.98 1016.88 1017.95 1018.35 1018.76
1003.01 1003.71 1003.74 1003.70 1003.44 1003.73 1004.12 1004.85 1006.39 1007.80 1009.05 1010.22 1010.27 1010.82 1011.12 1011.34 1010.45 1009.35 1009.25 1008.62 1007.28 1006.96 1007.64 1008.66 1008.83 1009.09 1010.15 1010.80 1012.13 1013.01 1012.88 1013.01 1013.43 1013.56 1013.65 1013.79 1013.76 1013.69 1013.77 1013.91 1014.24 1014.49 1014.73 1015.15 1015.49 1016.02 1016.51 1016.74 1017.22 1018.07 1018.63 1019.19 1019.37 1019.79
1003.63 1004.15 1004.42 1004.55 1004.72 1005.05 1005.97 1007.02 1007.37 1009.06 1010.64 1011.21 1011.76 1011.86 1011.85 1012.09 1011.87 1011.16 1010.23 1009.56 1009.34 1009.36 1010.09 1011.84 1013.11 1014.15 1014.81 1015.47 1015.46 1014.97 1014.43 1014.31 1014.78 1015.35 1015.70 1015.89 1015.80 1015.79 1015.83 1015.97 1016.20 1016.41 1016.65 1017.02 1017.36 1017.84 1018.13 1018.53 1018.98 1019.33 1019.63 1019.90 1020.11 1020.54
1004.32 1004.89 1005.11 1004.96 1004.87 1005.28 1006.54 1007.64 1007.94 1009.16 1010.41 1011.41 1011.76 1012.07 1012.22 1012.55 1012.68 1012.16 1011.69 1011.29 1011.20 1011.83 1013.73 1015.51 1016.98 1017.77 1017.69 1017.60 1017.22 1016.76 1015.96 1015.89 1016.20 1016.58 1017.23 1017.69 1017.92 1017.84 1017.87 1017.99 1018.22 1018.54 1018.67 1018.95 1019.20 1019.41 1019.78 1020.24 1020.69 1020.91 1021.00 1021.17 1021.50 1022.05
1005.10 1005.86 1005.65 1005.60 1005.47 1006.24 1007.53 1007.95 1008.43 1009.33 1010.07 1010.52 1010.98 1011.36 1012.15 1012.84 1013.11 1013.03 1013.06 1013.55 1013.65 1015.73 1017.60 1018.66 1019.02 1019.37 1019.44 1019.06 1018.63 1018.30 1018.12 1017.86 1017.95 1018.27 1018.87 1019.25 1019.69 1019.66 1019.78 1019.90 1019.96 1020.04 1020.18 1020.62 1020.94 1021.46 1021.67 1021.98 1022.37 1022.61 1022.73 1022.99 1023.36 1023.48
1005.61 1005.92 1005.72 1005.81 1006.08 1006.97 1007.86 1008.64 1008.58 1009.15 1009.64 1010.36 1010.81 1011.45 1012.28 1013.04 1013.81 1014.55 1015.63 1015.87 1017.85 1019.23 1019.72 1020.06 1020.25 1020.18 1020.30 1020.25 1020.18 1020.01 1020.17 1020.05 1020.23 1020.48 1020.78 1020.94 1021.13 1021.24 1021.44 1021.73 1021.78 1021.99 1022.30 1022.70 1023.02 1023.41 1023.82 1024.01 1024.05 1024.17 1024.17 1024.33 1024.55 1025.06
1005.70 1005.75 1006.31 1006.61 1007.08 1007.86 1009.46 1008.84 1009.12 1009.57 1009.98 1010.62 1011.23 1012.03 1013.05 1014.00 1015.07 1015.67 1017.23 1019.10 1020.61 1021.17 1021.15 1021.32 1021.58 1021.63 1021.55 1021.72 1021.68 1021.64 1021.69 1021.59 1021.75 1022.17 1022.53 1022.77 1023.07 1023.40 1023.51 1023.58 1023.63 1023.74 1024.04 1024.49 1024.78 1025.02 1025.33 1025.56 1025.68 1025.49 1025.57 1025.59 1025.52 1025.66
1006.30 1007.41 1007.99 1008.27 1008.58 1009.63 1010.05 1010.19 1010.28 1010.58 1011.21 1011.62 1012.44 1013.49 1014.54 1015.18 1015.93 1017.10 1019.13 1020.92 1022.07 1022.22 1022.19 1022.05 1021.82 1022.07 1022.45 1022.65 1022.81 1023.14 1023.29 1023.31 1023.37 1023.65 1023.97 1024.05 1024.25 1024.71 1024.93 1025.12 1025.30 1025.43 1025.53 1025.81 1026.07 1026.24 1026.33 1026.50 1026.46 1026.50 1026.62 1026.63 1026.69 1026.59
1007.65 1010.26 1009.85 1010.12 1010.33 1010.49 1011.05 1011.60 1011.97 1011.97 1012.75 1013.36 1014.12 1015.01 1016.01 1016.18 1017.06 1018.72 1020.29 1021.93 1022.69 1023.12 1023.12 1023.26 1023.15 1023.15 1023.45 1023.98 1024.41 1024.70 1024.75 1024.58 1024.68 1024.84 1024.97 1024.82 1025.12 1025.56 1026.04 1026.56 1026.93 1027.10 1026.91 1026.72 1026.85 1027.12 1027.31 1027.36 1027.40 1027.42 1027.59 1027.80 1027.72 1027.46
1009.79 1011.73 1011.68 1011.68 1012.00 1011.99 1012.48 1012.97 1013.57 1013.97 1014.30 1015.02 1016.05 1016.88 1017.11 1017.54 1018.67 1020.21 1021.75 1023.09 1023.85 1024.36 1024.47 1024.26 1024.21 1024.53 1024.97 1025.23 1025.45 1025.79 1025.91 1025.65 1025.88 1026.23 1026.88 1026.85 1026.55 1026.41 1026.74 1027.09 1027.66 1028.40 1028.49 1028.26 1028.01 1027.87 1028.11 1028.17 1028.22 1028.12 1027.98 1027.95 1028.23 1028.12
1011.33 1012.47 1013.31 1013.71 1013.42 1013.59 1014.22 1014.88 1015.22 1015.58 1016.19 1016.83 1017.44 1017.98 1018.48 1019.32 1020.66 1022.44 1023.77 1024.55 1024.92 1025.70 1025.82 1025.62 1025.33 1025.56 1026.02 1026.47 1026.93 1027.26 1027.47 1027.59 1027.53 1027.83 1028.21 1028.38 1028.51 1028.61 1028.67 1028.85 1029.38 1029.85 1029.53 1029.28 1029.07 1028.85 1028.79 1028.75 1028.81 1028.80 1028.76 1028.78 1028.91 1028.97
1013.15 1013.91 1014.51 1015.12 1015.26 1015.59 1016.03 1016.64 1017.33 1018.12 1018.67 1019.26 1019.27 1020.10 1020.86 1021.58 1022.84 1024.00 1024.95 1025.88 1026.24 1026.60 1026.87 1027.05 1027.16 1027.18 1027.41 1027.68 1027.70 1027.80 1028.15 1028.52 1028.71 1028.64 1028.72 1029.06 1029.43 1029.66 1029.89 1030.27 1030.83 1030.75 1030.34 1030.44 1029.99 1029.95 1029.77 1029.74 1029.80 1029.80 1029.84 1029.71 1029.77 1029.76
1014.58 1015.31 1015.87 1016.77 1016.90 1017.85 1018.91 1019.27 1019.92 1020.98 1021.61 1020.85 1021.12 1022.24 1023.40 1024.64 1025.19 1025.52 1026.15 1026.50 1026.75 1026.93 1027.17 1027.57 1027.93 1028.12 1028.35 1028.65 1028.93 1028.97 1028.85 1028.48 1028.35 1028.52 1028.62 1028.92 1029.33 1030.24 1030.57 1030.67 1030.68 1030.84 1030.53 1030.43 1030.86 1030.77 1030.86 1030.84 1030.97 1030.96 1030.60 1030.28 1030.06 1029.96
1015.94 1016.14 1016.81 1018.21 1019.04 1020.24 1021.58 1021.88 1022.39 1022.93 1022.90 1022.87 1023.46 1024.45 1025.22 1026.10 1026.92 1026.98 1026.90 1026.95 1027.05 1027.41 1027.81 1028.14 1028.41 1028.27 1028.56 1028.61 1029.23 1029.69 1030.04 1030.09 1029.94 1029.54 1029.43 1029.91 1030.53 1031.04 1031.09 1031.13 1031.13 1031.25 1031.16 1030.99 1031.00 1030.94 1031.30 1030.88 1030.85 1030.72 1030.74 1030.60 1030.61 1030.54
1016.71 1016.81 1017.88 1019.29 1020.82 1022.34 1022.99 1023.37 1023.58 1023.63 1023.74 1023.86 1024.09 1024.43 1025.35 1026.50 1027.53 1028.00 1027.97 1028.04 1028.22 1028.40 1028.43 1028.69 1028.96 1029.11 1029.29 1029.51 1029.60 1029.94 1030.35 1031.09 1031.36 1031.35 1031.17 1031.27 1031.34 1031.39 1031.66 1031.78 1031.79 1031.67 1031.48 1031.42 1031.40 1031.35 1031.40 1030.99 1030.83 1030.87 1030.89 1030.93 1030.98 1030.89
1017.72 1017.98 1018.81 1020.15 1021.83 1023.03 1023.33 1022.86 1022.99 1023.29 1023.76 1023.95 1024.76 1025.43 1026.20 1026.21 1026.71 1027.80 1028.60 1028.61 1028.54 1028.45 1029.11 1029.01 1029.18 1029.75 1030.41 1030.78 1031.02 1031.34 1031.53 1031.49 1031.66 1031.92 1031.89 1031.85 1031.77 1031.96 1031.96 1032.05 1032.08 1031.90 1031.78 1031.72 1031.64 1031.59 1031.56 1031.42 1031.19 1031.15 1031.04 1030.98 1031.11 1031.13
1018.80 1019.21 1019.66 1020.60 1021.87 1022.46 1022.81 1022.69 1022.77 1023.37 1023.63 1024.07 1024.86 1025.40 1025.80 1025.97 1026.63 1027.78 1029.27 1029.30 1028.96 1028.85 1029.25 1029.57 1030.06 1030.70 1031.19 1031.35 1031.43 1031.71 1032.05 1031.96 1032.70 1032.82 1032.93 1033.03 1033.21 1032.99 1032.62 1031.91 1031.99 1031.95 1032.03 1031.95 1031.76 1031.73 1031.64 1031.55 1031.41 1031.36 1031.26 1031.30 1031.31 1031.31
Wind_Speed
21 18 17 14 21 19 7 29 33 31 31 33 34 35 31 44 39 12 11 11 8 6 10 4 14 15 17 21 16 15 11 12 10 10 9 6 4 11 13 15 12 11 10 6 9 9 11 6 9 14 14 14 7 9
23 21 21 13 14 15 17 25 31 30 31 32 32 33 35 41 38 16 11 7 5 2 4 4 4 8 3 25 15 11 13 15 9 9 7 6 4 1 7 11 11 9 10 9 9 5 6 14 11 17 9 8 6 8
22 23 23 7 12 16 19 24 25 26 29 31 31 33 34 37 27 20 9 7 6 4 3 5 8 7 4 8 15 13 13 14 16 13 6 4 5 8 6 10 15 13 6 4 6 11 12 11 12 13 8 7 8 6
22 23 26 18 11 16 19 21 24 25 26 29 33 35 39 29 18 15 9 5 8 5 4 6 6 6 3 6 11 13 14 12 9 9 6 4 5 6 7 10 11 11 8 10 16 18 18 9 9 13 13 11 10 8
22 23 25 29 25 22 20 20 22 25 26 29 33 37 35 21 17 11 7 2 2 3 4 7 7 2 3 7 17 12 12 13 7 7 3 6 7 6 5 7 10 13 13 9 9 9 9 14 12 9 16 16 12 12
22 23 24 24 26 28 30 30 32 33 37 35 34 32 27 22 19 9 4 2 5 5 2 4 5 8 4 2 12 16 13 7 9 7 7 7 11 9 4 9 12 15 17 13 14 14 12 10 6 7 11 9 10 11
21 22 23 23 24 25 28 28 28 29 30 31 30 28 25 20 4 4 3 8 6 3 2 1 3 9 17 9 5 8 16 10 8 5 4 7 8 5 5 10 10 10 13 16 13 10 8 12 7 1 4 3 2 7
18 21 22 23 26 27 27 27 28 26 31 27 27 22 20 16 12 7 6 8 2 3 1 2 2 4 13 7 6 8 9 10 8 6 5 8 5 4 7 13 18 18 19 18 15 9 11 9 4 2 3 4 6 7
16 18 19 21 22 24 26 28 28 29 29 27 24 20 8 4 3 5 5 3 4 3 4 3 3 3 2 8 3 5 6 9 3 8 9 6 8 9 6 15 14 13 12 14 16 14 8 8 9 4 4 5 7 8
15 16 17 18 18 19 21 24 27 28 28 24 13 4 5 4 16 16 2 1 2 1 2 2 2 2 4 2 4 2 3 7 5 6 5 5 10 13 5 14 14 8 13 12 5 7 6 8 6 3 5 5 6 9
13 16 17 18 18 17 19 21 20 17 9 1 3 5 7 9 3 2 3 2 3 2 5 4 7 1 3 2 1 3 2 3 5 5 7 4 3 7 14 13 12 10 8 7 6 6 6 5 3 4 4 5 8 9
16 17 19 20 21 21 19 11 5 3 4 2 6 8 4 1 2 1 4 3 5 5 5 6 5 3 2 1 6 1 5 4 4 5 3 3 3 7 10 11 14 13 10 7 8 8 9 11 10 12 13 16 17 16
27 23 21 22 19 14 12 9 10 5 2 2 3 4 2 2 5 5 7 4 3 2 2 3 4 4 3 10 2 3 4 3 3 3 3 4 5 6 7 6 9 10 11 12 14 16 18 19 17 18 17 15 16 16
26 21 19 18 16 11 9 10 5 1 3 4 2 3 4 4 7 6 5 6 2 2 3 6 3 2 2 1 1 3 3 1 2 3 5 6 7 6 7 7 9 10 11 13 13 14 17 18 17 16 14 14 15 16
18 18 17 15 14 13 12 10 8 6 5 6 5 5 7 5 6 6 7 3 5 5 3 4 2 1 2 2 4 1 3 4 7 5 5 7 8 7 8 9 9 10 10 12 13 15 17 18 17 18 16 15 16 15
15 15 10 14 16 15 9 7 7 3 4 5 9 6 9 5 8 8 6 5 5 5 3 3 2 2 4 3 4 7 5 7 5 4 6 5 8 9 10 11 11 11 13 14 15 18 18 18 18 19 18 16 14 15
3 4 10 13 12 15 14 4 4 8 6 6 5 8 8 5 7 7 8 7 6 5 4 4 6 6 2 4 5 7 6 5 7 7 7 10 10 11 11 12 13 14 16 17 17 17 17 17 16 17 18 15 16 16
4 11 13 10 8 6 4 6 6 6 8 6 4 7 7 7 9 8 6 6 4 3 4 6 6 9 8 6 5 5 5 6 8 9 10 12 13 13 12 15 14 15 17 17 17 16 16 15 16 12 14 13 13 13
10 10 12 9 3 3 4 4 3 5 5 3 5 7 3 5 9 8 8 8 10 8 6 5 7 5 5 5 6 7 6 6 7 9 11 14 13 14 15 15 17 17 17 17 15 11 12 15 12 9 9 9 9 8
18 14 8 5 6 3 4 4 3 5 4 2 3 8 7 6 8 9 11 9 9 6 8 7 5 5 4 5 6 6 6 6 7 9 11 11 11 14 15 12 11 13 13 14 13 14 11 12 11 11 10 10 9 9
9 1 4 3 3 5 4 2 4 4 4 3 3 6 6 9 12 11 12 10 9 7 6 6 7 7 8 8 7 8 10 10 10 10 9 10 10 11 11 11 12 11 11 11 11 12 13 11 10 9 9 9 9 8
3 3 2 4 3 4 5 5 3 3 3 4 5 4 4 6 8 9 10 10 8 9 6 6 7 7 10 13 11 13 13 14 14 12 13 12 10 10 10 10 10 11 11 10 10 10 10 9 8 9 8 8 8 8
3 2 3 4 4 5 3 3 4 4 3 3 3 4 4 5 5 4 6 6 6 8 7 8 10 11 11 12 13 16 14 13 11 11 10 10 10 10 10 11 10 10 10 9 9 8 8 9 9 8 8 8 7 7
5 6 6 5 6 5 2 4 3 3 4 3 4 5 5 5 3 5 6 4 5 6 7 9 5 7 9 12 11 11 10 9 10 10 9 9 9 10 9 9 9 9 9 7 7 7 7 7 7 7 8 8 7 7
7 8 5 8 4 4 4 4 4 4 5 4 4 5 4 3 4 5 4 3 6 6 6 7 7 8 8 9 9 9 11 8 8 10 9 7 7 7 8 8 9 9 7 7 7 7 7 7 6 7 8 8 8 8
9 9 6 5 4 4 4 4 4 5 4 4 5 3 2 3 4 5 4 5 5 5 6 6 6 7 8 8 7 7 8 6 7 8 9 8 8 6 6 6 6 7 8 7 6 7 7 7 7 8 7 8 9 8
6 6 5 4 3 4 5 5 5 5 5 5 3 3 3 4 5 4 4 5 4 5 5 6 6 7 7 7 7 7 7 8 9 8 7 8 8 9 8 7 7 5 6 6 6 7 7 7 7 8 7 7 7 7
6 6 5 5 6 6 5 5 5 5 4 4 1 5 4 4 4 4 4 5 5 5 6 6 7 6 6 6 5 4 5 4 5 5 7 8 7 7 7 6 5 6 5 7 7 6 7 6 6 6 6 6 5 5
6 3 5 6 6 7 8 6 5 4 4 3 2 3 4 4 3 6 5 5 4 4 5 5 5 5 5 5 5 6 6 5 4 5 5 4 4 6 5 5 5 5 4 4 5 6 6 5 5 5 5 4 4 3
5 4 5 6 6 7 5 6 6 5 4 5 5 7 7 5 4 2 3 3 3 4 4 4 2 2 3 3 4 6 6 6 6 5 3 4 4 3 3 4 4 4 3 4 4 2 3 1 1 1 3 3 4 5
2 3 6 6 6 6 7 6 6 5 5 6 6 6 7 5 3 3 4 4 4 4 4 4 3 3 3 2 2 2 3 4 5 6 5 4 3 4 4 3 4 3 3 3 3 3 4 3 3 3 4 5 5 5
4 5 4 5 4 5 1 1 2 3 2 3 4 3 4 4 4 4 3 2 3 3 3 1 3 4 4 4 3 4 4 3 3 2 3 3 4 4 3 2 2 2 3 3 2 3 3 4 4 4 5 6 6 7
5 7 7 5 4 4 3 3 2 3 2 2 3 2 2 2 3 4 3 1 3 2 3 2 4 4 4 3 3 3 1 3 4 4 4 3 4 4 5 2 3 3 4 4 4 3 4 5 5 6 6 6 7 8
Wind_Direction
353 337 340 329 334 337 5 159 168 166 167 169 172 172 174 175 164 166 167 180 194 197 168 233 183 194 200 213 190 196 161 196 184 197 210 198 227 219 232 237 173 178 189 186 229 227 238 130 136 197 221 244 254 232
359 358 350 341 0 37 94 131 147 154 159 163 165 162 167 168 161 183 152 173 198 110 114 231 36 185 238 212 195 205 205 182 186 202 201 222 171 345 213 230 194 213 219 206 204 217 244 184 213 218 264 299 224 263
4 5 355 64 48 63 97 119 131 143 151 152 153 159 157 151 157 205 140 128 107 81 186 177 186 147 233 280 306 209 209 199 211 212 176 208 199 192 198 226 245 218 255 231 232 233 238 215 245 265 292 257 265 247
21 23 31 54 76 83 92 112 125 130 143 152 150 149 142 140 142 146 132 159 152 156 167 128 130 192 159 320 284 277 223 234 201 214 175 178 204 215 216 238 240 237 226 242 260 262 272 237 253 264 250 236 238 226
33 40 43 49 67 80 91 109 114 124 121 126 133 145 140 134 102 96 100 187 254 250 169 133 148 163 210 262 295 255 242 223 187 198 182 213 219 254 231 259 248 241 234 232 246 262 269 267 257 301 235 233 229 221
37 42 61 62 64 73 81 93 101 107 107 105 112 130 137 126 105 115 105 141 211 218 89 164 100 157 150 299 295 245 220 213 201 212 208 224 217 210 239 244 243 241 252 244 258 264 291 331 318 318 296 245 218 225
48 48 58 64 82 84 87 85 96 109 121 107 107 101 107 130 154 89 143 144 180 182 183 133 193 169 172 162 281 243 230 213 223 206 222 218 204 195 253 245 252 264 258 250 262 279 281 261 273 32 290 258 223 216
57 59 61 68 71 86 97 89 106 107 128 113 100 94 102 122 138 79 92 136 189 100 320 205 227 202 176 161 220 205 197 217 234 228 241 219 215 202 245 245 251 258 265 275 280 258 262 295 290 240 250 182 202 194
68 69 69 73 80 88 97 103 101 99 102 106 111 103 74 57 62 65 73 327 25 326 185 170 210 191 169 200 149 194 191 185 201 214 225 230 215 218 229 249 266 271 277 280 261 260 248 262 275 251 220 203 192 167
77 83 85 82 86 92 99 107 115 120 122 127 140 136 104 72 115 141 144 109 174 166 134 239 230 210 336 9 182 130 207 148 176 204 200 248 243 239 330 340 310 331 341 332 302 272 261 267 269 244 227 204 171 158
95 89 94 95 99 102 104 109 113 123 166 66 83 56 87 149 224 30 107 159 146 215 226 229 207 214 72 309 253 255 156 166 195 173 188 212 213 2 348 342 345 346 336 327 337 329 322 331 297 149 133 109 121 137
102 116 92 96 102 108 101 66 350 278 41 43 87 114 152 138 69 150 176 168 207 219 168 173 146 116 71 2 248 162 177 194 182 125 149 160 48 351 357 7 11 7 7 23 27 57 59 63 77 80 74 69 76 89
108 113 98 98 98 89 75 56 40 37 356 167 145 86 175 165 205 211 178 191 169 144 178 164 138 124 183 230 150 203 128 114 128 174 84 60 357 2 359 9 32 32 46 61 63 70 75 73 71 84 91 87 88 86
103 101 99 94 93 91 74 47 40 277 19 54 11 112 335 103 24 26 331 347 29 311 176 150 112 151 225 278 315 77 47 66 200 131 70 18 355 10 35 46 66 59 63 69 73 77 81 82 79 78 82 91 95 93
103 101 102 98 94 76 65 40 18 52 40 41 7 43 40 344 33 1 331 282 347 312 273 79 88 79 20 43 21 95 170 83 25 45 28 5 9 34 51 60 71 73 74 78 83 86 86 87 87 84 79 82 84 87
118 101 86 83 70 54 36 40 29 54 50 53 33 355 355 25 9 360 349 344 343 324 262 64 96 124 58 40 50 15 43 38 33 21 11 26 43 56 69 74 77 79 82 85 84 86 84 83 85 85 79 74 75 81
53 99 119 88 70 57 32 69 49 47 38 32 53 30 4 11 347 337 336 343 311 304 31 19 45 25 10 59 63 17 36 23 13 41 42 47 63 70 74 75 74 79 82 84 85 82 81 83 84 82 82 80 81 79
73 126 111 78 50 39 38 42 63 49 56 27 16 11 38 6 343 352 350 346 345 57 38 43 5 31 27 29 51 13 335 70 51 47 47 50 54 61 69 76 75 78 79 78 77 78 78 78 80 81 88 90 90 88
143 134 121 95 78 89 70 46 55 83 55 60 34 23 15 24 12 3 7 22 34 39 74 54 47 36 33 20 350 341 351 59 72 66 56 48 55 64 67 68 69 70 70 71 71 69 71 72 76 79 81 79 76 72
119 98 99 63 8 83 79 74 73 77 60 115 140 76 61 49 31 38 33 36 43 52 49 51 42 27 5 355 354 355 2 82 88 81 66 56 50 55 58 68 71 74 72 70 68 70 75 71 63 59 57 56 63 57
87 50 56 257 65 68 65 58 76 92 152 99 96 80 67 65 40 36 42 37 44 43 70 52 62 50 42 36 35 48 48 53 60 68 77 74 61 64 63 59 60 62 63 62 64 62 57 57 55 56 55 58 50 45
107 216 89 12 90 77 76 26 85 137 96 108 78 66 43 42 35 40 49 43 57 44 45 47 49 61 64 55 54 60 67 70 69 68 62 61 60 57 56 57 60 61 59 59 60 62 58 43 51 51 50 59 65 56
178 71 53 26 81 57 51 342 64 25 62 60 53 50 49 50 41 52 71 48 57 33 41 71 68 66 67 66 65 59 59 70 72 70 68 68 67 64 63 58 57 66 68 61 60 65 60 55 48 49 54 44 46 46
50 50 33 40 41 78 64 43 28 60 47 35 53 58 41 38 40 70 70 60 44 33 41 32 69 88 76 61 54 49 49 61 70 68 66 72 72 65 62 63 61 59 58 63 59 55 57 58 51 55 44 45 43 40
71 20 1 55 33 73 67 59 25 54 68 51 75 61 46 15 61 71 77 81 54 39 38 56 49 59 73 72 66 59 50 56 66 66 48 65 93 100 87 75 63 47 30 50 55 57 51 50 47 52 53 48 25 33
74 25 31 35 46 49 46 73 53 49 62 69 62 67 20 64 71 73 74 64 55 45 27 35 68 78 64 54 63 51 34 43 75 71 52 34 31 49 57 60 74 60 31 31 30 50 54 48 46 39 34 47 45 23
70 65 61 18 55 84 97 71 58 57 57 47 47 36 49 69 78 78 100 36 75 61 39 32 54 70 78 78 69 61 57 51 56 71 72 62 54 47 44 54 59 36 34 34 37 33 37 37 38 31 32 36 32 22
56 41 65 26 64 35 75 54 44 44 50 6 30 38 55 41 78 55 76 83 83 83 78 62 48 53 61 56 51 63 85 103 113 118 116 91 70 62 65 74 58 41 52 25 29 38 28 34 25 30 28 27 23 18
59 62 84 45 52 55 37 36 58 54 348 333 69 76 93 65 35 117 108 104 112 111 102 97 91 94 91 83 58 40 25 11 51 64 62 63 65 57 37 29 38 31 16 33 62 25 42 21 35 14 14 1 358 350
61 8 87 54 48 52 45 15 78 68 42 59 91 112 106 100 58 20 118 129 118 93 81 84 80 73 61 61 73 65 47 36 15 8 44 61 56 35 22 27 24 34 2 13 8 44 35 334 348 36 11 3 9 345
40 69 72 62 79 76 92 112 123 99 64 60 59 92 98 118 119 55 67 85 107 135 139 124 107 79 79 48 41 81 96 74 57 48 45 67 49 36 32 14 13 353 359 356 351 6 353 324 353 346 0 354 353 338
38 49 114 103 114 133 212 196 77 90 122 107 97 113 150 170 137 137 126 171 164 164 52 38 137 114 76 82 76 75 28 100 120 95 52 22 26 20 7 356 341 325 336 319 329 324 328 330 329 342 332 336 340 328
97 84 94 103 121 163 164 197 118 120 96 84 92 51 50 344 111 100 124 297 343 68 130 119 85 108 111 92 84 110 169 88 70 52 74 38 354 338 306 314 326 314 303 305 308 310 311 322 321 331 318 319 320 320